EN

Hourly Weather Abel Tasman National Park

Today, 14 May, Friday

Time Temperature Precipitation Wind Pressure Humidity
00:00 +3°C° 0 mm 2 mps 736 mmHg 79%
01:00 +3°C° 0 mm 2 mps 736 mmHg 79%
02:00 +3°C° 0 mm 2 mps 735 mmHg 80%
03:00 +2°C° 0 mm 2 mps 735 mmHg 80%
04:00 +2°C° 0 mm 2 mps 734 mmHg 81%
05:00 +2°C° 0 mm 2 mps 734 mmHg 81%
06:00 +2°C° 0 mm 2 mps 733 mmHg 82%
07:00 +3°C° 0 mm 2 mps 733 mmHg 79%
08:00 +4°C° 0 mm 2 mps 733 mmHg 75%
09:00 +5°C° 0 mm 2 mps 732 mmHg 72%
10:00 +6°C° 0 mm 2 mps 732 mmHg 69%
11:00 +8°C° 0 mm 1 mps 731 mmHg 67%
12:00 +10°C° 0 mm 1 mps 731 mmHg 63%
13:00 +10°C° 0 mm 1 mps 730 mmHg 64%
14:00 +10°C° 0 mm 1 mps 729 mmHg 65%
15:00 +10°C° 0 mm 1 mps 728 mmHg 65%
16:00 +9°C° 0 mm 1 mps 727 mmHg 72%
17:00 +8°C° 0 mm 1 mps 726 mmHg 79%
18:00 +6°C° 0 mm 1 mps 726 mmHg 88%
19:00 +7°C° 0.1 mm 1 mps 725 mmHg 88%
20:00 +7°C° 0.1 mm 1 mps 725 mmHg 88%
21:00 +7°C° 0.1 mm 2 mps 724 mmHg 89%
22:00 +7°C° 3 mm 2 mps 723 mmHg 92%
23:00 +7°C° 3 mm 3 mps 722 mmHg 95%

Tomorrow, 15 May, Saturday

Time Temperature Precipitation Wind Pressure Humidity
00:00 +7°C° 3 mm 3 mps 721 mmHg 97%
01:00 +8°C° 6.7 mm 3 mps 720 mmHg 98%
02:00 +7°C° 6.7 mm 4 mps 719 mmHg 98%
03:00 +7°C° 6.7 mm 4 mps 718 mmHg 98%
04:00 +8°C° 0.1 mm 3 mps 718 mmHg 97%
05:00 +9°C° 0.1 mm 3 mps 718 mmHg 95%
06:00 +9°C° 0.1 mm 2 mps 717 mmHg 94%
07:00 +9°C° 0 mm 3 mps 718 mmHg 93%
08:00 +10°C° 0 mm 3 mps 718 mmHg 92%
09:00 +10°C° 0 mm 4 mps 719 mmHg 91%
10:00 +11°C° 0 mm 3 mps 720 mmHg 87%
11:00 +12°C° 0 mm 3 mps 720 mmHg 82%
12:00 +13°C° 0 mm 3 mps 721 mmHg 78%
13:00 +14°C° 0 mm 2 mps 721 mmHg 72%
14:00 +14°C° 0 mm 2 mps 722 mmHg 66%
15:00 +15°C° 0 mm 2 mps 722 mmHg 60%
16:00 +13°C° 0 mm 2 mps 723 mmHg 67%
17:00 +10°C° 0 mm 3 mps 723 mmHg 74%
18:00 +8°C° 0 mm 3 mps 724 mmHg 81%
19:00 +8°C° 0 mm 3 mps 724 mmHg 81%
20:00 +7°C° 0 mm 3 mps 725 mmHg 82%
21:00 +6°C° 0 mm 4 mps 725 mmHg 83%
22:00 +7°C° 0 mm 3 mps 726 mmHg 83%
23:00 +7°C° 0 mm 3 mps 726 mmHg 82%

Day after tomorrow, 16 May, Sunday

Time Temperature Precipitation Wind Pressure Humidity
00:00 +7°C° 0 mm 3 mps 726 mmHg 82%
01:00 +5°C° 0 mm 3 mps 726 mmHg 82%
02:00 +5°C° 0 mm 3 mps 726 mmHg 82%
03:00 +5°C° 0 mm 3 mps 726 mmHg 82%
04:00 +6°C° 0 mm 2 mps 726 mmHg 82%
05:00 +6°C° 0 mm 2 mps 726 mmHg 83%
06:00 +7°C° 0 mm 2 mps 726 mmHg 84%
07:00 +8°C° 0 mm 2 mps 726 mmHg 84%
08:00 +8°C° 0 mm 3 mps 727 mmHg 84%
09:00 +9°C° 0 mm 3 mps 727 mmHg 84%
10:00 +10°C° 0.4 mm 4 mps 726 mmHg 85%
11:00 +11°C° 0.4 mm 4 mps 726 mmHg 87%
12:00 +10°C° 0.4 mm 5 mps 725 mmHg 88%
13:00 +10°C° 0.7 mm 6 mps 725 mmHg 89%
14:00 +10°C° 0.7 mm 6 mps 724 mmHg 91%
15:00 +10°C° 0.7 mm 7 mps 724 mmHg 92%
16:00 +10°C° 2.8 mm 5 mps 723 mmHg 94%
17:00 +11°C° 2.8 mm 4 mps 723 mmHg 95%
18:00 +10°C° 2.8 mm 3 mps 723 mmHg 97%
19:00 +10°C° 1.5 mm 3 mps 723 mmHg 97%
20:00 +10°C° 1.5 mm 3 mps 722 mmHg 97%
21:00 +10°C° 1.5 mm 3 mps 722 mmHg 97%
22:00 +10°C° 0.3 mm 2 mps 722 mmHg 96%
23:00 +10°C° 0.3 mm 2 mps 722 mmHg 96%

17 May, Monday

Time Temperature Precipitation Wind Pressure Humidity
00:00 +10°C° 0.3 mm 1 mps 722 mmHg 96%
01:00 +9°C° 0.3 mm 2 mps 722 mmHg 95%
02:00 +10°C° 0.3 mm 2 mps 721 mmHg 95%
03:00 +10°C° 0.3 mm 2 mps 721 mmHg 94%
04:00 +10°C° 0.4 mm 2 mps 721 mmHg 94%
05:00 +10°C° 0.4 mm 2 mps 721 mmHg 94%
06:00 +11°C° 0.4 mm 1 mps 721 mmHg 94%
07:00 +10°C° 0 mm 2 mps 721 mmHg 93%
08:00 +9°C° 0 mm 2 mps 721 mmHg 92%
09:00 +9°C° 0 mm 3 mps 722 mmHg 91%
10:00 +10°C° 0 mm 3 mps 722 mmHg 78%
11:00 +11°C° 0 mm 3 mps 722 mmHg 65%
12:00 +12°C° 0 mm 4 mps 722 mmHg 52%
13:00 +12°C° 0 mm 4 mps 722 mmHg 52%
14:00 +13°C° 0 mm 3 mps 722 mmHg 52%
15:00 +13°C° 0 mm 3 mps 722 mmHg 52%
16:00 +11°C° 0 mm 4 mps 722 mmHg 62%
17:00 +8°C° 0 mm 4 mps 722 mmHg 71%
18:00 +7°C° 0 mm 5 mps 722 mmHg 81%
19:00 +6°C° 0 mm 5 mps 722 mmHg 82%
20:00 +6°C° 0 mm 5 mps 722 mmHg 82%
21:00 +6°C° 0 mm 5 mps 722 mmHg 83%
22:00 +5°C° 1.4 mm 6 mps 721 mmHg 87%
23:00 +7°C° 1.4 mm 6 mps 721 mmHg 91%

18 May, Tuesday

Time Temperature Precipitation Wind Pressure Humidity
00:00 +8°C° 1.4 mm 6 mps 721 mmHg 95%
01:00 +8°C° 0.5 mm 5 mps 720 mmHg 95%
02:00 +7°C° 0.5 mm 4 mps 720 mmHg 95%
03:00 +8°C° 0.5 mm 3 mps 720 mmHg 95%
04:00 +8°C° 0 mm 3 mps 720 mmHg 92%
05:00 +6°C° 0 mm 4 mps 721 mmHg 90%
06:00 +5°C° 0 mm 4 mps 721 mmHg 87%
07:00 +6°C° 0 mm 4 mps 722 mmHg 86%
08:00 +6°C° 0 mm 4 mps 722 mmHg 85%
09:00 +6°C° 0 mm 4 mps 723 mmHg 83%
10:00 +7°C° 0 mm 4 mps 723 mmHg 80%
11:00 +8°C° 0 mm 4 mps 724 mmHg 76%
12:00 +10°C° 0 mm 4 mps 724 mmHg 73%
13:00 +10°C° 0 mm 4 mps 724 mmHg 75%
14:00 +10°C° 0 mm 4 mps 724 mmHg 77%
15:00 +10°C° 0 mm 4 mps 724 mmHg 79%
16:00 +8°C° 0 mm 4 mps 724 mmHg 78%
17:00 +8°C° 0 mm 4 mps 724 mmHg 78%
18:00 +8°C° 0 mm 4 mps 725 mmHg 77%
19:00 +8°C° 0 mm 5 mps 725 mmHg 79%
20:00 +7°C° 0 mm 5 mps 725 mmHg 80%
21:00 +7°C° 0 mm 5 mps 726 mmHg 82%
22:00 +8°C° 0 mm 5 mps 725 mmHg 83%
23:00 +8°C° 0 mm 5 mps 725 mmHg 83%

19 May, Wednesday

Time Temperature Precipitation Wind Pressure Humidity
00:00 +8°C° 0 mm 5 mps 725 mmHg 84%
01:00 +8°C° 0.1 mm 5 mps 725 mmHg 86%
02:00 +8°C° 0.1 mm 5 mps 724 mmHg 87%
03:00 +8°C° 0.1 mm 6 mps 724 mmHg 89%
04:00 +9°C° 0.2 mm 6 mps 724 mmHg 89%
05:00 +9°C° 0.2 mm 6 mps 723 mmHg 89%
06:00 +9°C° 0.2 mm 6 mps 723 mmHg 89%
07:00 +10°C° 0.1 mm 5 mps 723 mmHg 88%
08:00 +11°C° 0.1 mm 4 mps 724 mmHg 86%
09:00 +12°C° 0.1 mm 3 mps 724 mmHg 84%
10:00 +12°C° 0 mm 3 mps 724 mmHg 75%
11:00 +14°C° 0 mm 2 mps 725 mmHg 67%
12:00 +15°C° 0 mm 2 mps 725 mmHg 58%
13:00 +15°C° 0 mm 2 mps 726 mmHg 57%
14:00 +15°C° 0 mm 2 mps 726 mmHg 55%
15:00 +15°C° 0 mm 2 mps 727 mmHg 53%
16:00 +13°C° 0 mm 3 mps 727 mmHg 64%
17:00 +11°C° 0 mm 3 mps 728 mmHg 75%
18:00 +8°C° 0 mm 4 mps 729 mmHg 86%
19:00 +8°C° 0.1 mm 4 mps 729 mmHg 88%
20:00 +8°C° 0.1 mm 4 mps 730 mmHg 89%
21:00 +8°C° 0.1 mm 4 mps 731 mmHg 91%
22:00 +9°C° 0.1 mm 3 mps 731 mmHg 91%
23:00 +9°C° 0.1 mm 3 mps 731 mmHg 92%
Show more